User: anonymous   Login
Location: NJAA Observatory
(40.6819°N, 74.8979°W)
Time: 13:51:47
(UTC-04:00)
Language:

Landsat 5 - Orbit

View from above orbital plane
View from above orbital plane
View from above satellite
View from above satellite

Ground track
Ground track

The orbit data is extracted from the following two-line orbital elements,

1 14780U 84021A   14295.84167042  .00004118  00000-0  40619-3 0  4675
2 14780 098.0473 015.3046 0096473 114.1837 001.9905 14.89107564631612
Epoch (UTC): 22 October 2014 20:12:00
Eccentricity: 0.0096473
inclination: 98.0473°
perigee height: 533 km
apogee height: 668 km
right ascension of ascending node: 15.3046°
argument of perigee: 114.1837°
revolutions per day: 14.89107564
mean anomaly at epoch: 1.9905°
orbit number at epoch: 63161

The dashed part of the orbit path shows where the satellite is in the earth's shadow,  

DLR